ACA724 CYYZ-CYUL

Flight info

Callsign ACA724
Flight time 1h 3m
Altitude 33000
Route DEDKI5 MIGLO HABBS7
Aircraft A320/M-SDE3FGHIRWY/LB1

Departure

Time 2026-05-05 13:49
Airport Toronto Pearson International Airport (CYYZ)

Arrival

Time 2026-05-05 14:52
Airport Montreal / Pierre Elliott Trudeau International Airport (CYUL)
Time Latitude Longitude Altitude Speed Heading
2026-05-05 13:36 43.67881 -79.61052 568 ft 0 kts 271°
2026-05-05 13:41 43.67880 -79.61036 573 ft 3 kts 271°
2026-05-05 13:41 43.67880 -79.61009 571 ft 3 kts 271°
2026-05-05 13:42 43.67880 -79.60982 573 ft 3 kts 271°
2026-05-05 13:42 43.67879 -79.60954 573 ft 3 kts 271°
2026-05-05 13:42 43.67879 -79.60928 573 ft 0 kts 262°
2026-05-05 13:44 43.67879 -79.60930 573 ft 2 kts 262°
2026-05-05 13:44 43.67836 -79.60957 568 ft 11 kts 169°
2026-05-05 13:44 43.67785 -79.60903 569 ft 9 kts 135°
2026-05-05 13:44 43.67742 -79.60844 566 ft 9 kts 135°
2026-05-05 13:45 43.67701 -79.60789 566 ft 7 kts 136°
2026-05-05 13:45 43.67676 -79.60746 574 ft 4 kts 111°
2026-05-05 13:45 43.67679 -79.60678 568 ft 12 kts 95°
2026-05-05 13:45 43.67665 -79.60542 571 ft 18 kts 61°
2026-05-05 13:46 43.67743 -79.60436 571 ft 20 kts 46°
2026-05-05 13:46 43.67862 -79.60263 570 ft 18 kts 47°
2026-05-05 13:46 43.67946 -79.60141 573 ft 18 kts 46°
2026-05-05 13:46 43.68026 -79.60023 572 ft 12 kts 51°
2026-05-05 13:47 43.68021 -79.59953 574 ft 6 kts 126°
2026-05-05 13:47 43.67999 -79.59920 571 ft 3 kts 135°
2026-05-05 13:47 43.67983 -79.59899 574 ft 5 kts 136°
2026-05-05 13:47 43.67924 -79.59822 576 ft 12 kts 137°
2026-05-05 13:48 43.67876 -79.59788 579 ft 5 kts 182°
2026-05-05 13:48 43.67842 -79.59820 579 ft 8 kts 228°
2026-05-05 13:48 43.67794 -79.59891 576 ft 15 kts 226°
2026-05-05 13:48 43.67531 -79.60283 579 ft 99 kts 227°
2026-05-05 13:49 43.66879 -79.61228 590 ft 167 kts 226°
2026-05-05 13:49 43.66042 -79.62431 1278 ft 178 kts 229°
2026-05-05 13:49 43.65166 -79.63632 2302 ft 180 kts 227°
2026-05-05 13:49 43.64256 -79.64827 2938 ft 189 kts 226°
2026-05-05 13:50 43.63258 -79.66147 3347 ft 206 kts 227°
2026-05-05 13:50 43.62198 -79.67551 3883 ft 218 kts 227°
2026-05-05 13:50 43.61102 -79.69015 4677 ft 220 kts 226°
2026-05-05 13:50 43.60011 -79.70487 5521 ft 221 kts 225°
2026-05-05 13:51 43.58651 -79.71530 6412 ft 233 kts 200°
2026-05-05 13:51 43.56954 -79.71554 7003 ft 265 kts 171°
2026-05-05 13:51 43.55330 -79.70101 7654 ft 295 kts 138°
2026-05-05 13:51 43.54085 -79.67809 8464 ft 305 kts 130°
2026-05-05 13:52 43.52938 -79.65291 9302 ft 312 kts 127°
2026-05-05 13:52 43.51836 -79.62676 10093 ft 320 kts 123°
2026-05-05 13:52 43.51068 -79.59751 10815 ft 336 kts 107°
2026-05-05 13:52 43.50870 -79.56432 11101 ft 366 kts 88°
2026-05-05 13:53 43.51373 -79.52965 11607 ft 379 kts 75°
2026-05-05 13:53 43.52071 -79.49442 12326 ft 385 kts 75°
2026-05-05 13:53 43.52761 -79.45848 13090 ft 389 kts 76°
2026-05-05 13:53 43.53449 -79.42211 13780 ft 394 kts 75°
2026-05-05 13:54 43.54193 -79.38560 14425 ft 398 kts 73°
2026-05-05 13:54 43.55003 -79.34882 15046 ft 402 kts 73°
2026-05-05 13:54 43.55848 -79.31204 15701 ft 405 kts 72°
2026-05-05 13:54 43.56705 -79.27511 16344 ft 408 kts 72°
2026-05-05 13:55 43.57572 -79.23743 17003 ft 411 kts 73°
2026-05-05 13:55 43.58425 -79.19985 17650 ft 414 kts 73°
2026-05-05 13:55 43.59284 -79.16161 18242 ft 417 kts 73°
2026-05-05 13:55 43.60144 -79.12307 18758 ft 421 kts 73°
2026-05-05 13:56 43.61000 -79.08449 19282 ft 425 kts 73°
2026-05-05 13:56 43.61854 -79.04576 19784 ft 429 kts 73°
2026-05-05 13:56 43.62724 -79.00614 20301 ft 433 kts 73°
2026-05-05 13:56 43.63599 -78.96617 20827 ft 437 kts 73°
2026-05-05 13:57 43.64487 -78.92582 21345 ft 441 kts 73°
2026-05-05 13:57 43.65384 -78.88518 21863 ft 444 kts 73°
2026-05-05 13:57 43.66284 -78.84419 22384 ft 448 kts 73°
2026-05-05 13:57 43.67190 -78.80272 22901 ft 452 kts 73°
2026-05-05 13:58 43.68100 -78.76102 23362 ft 456 kts 73°
2026-05-05 13:58 43.69047 -78.71895 23784 ft 460 kts 69°
2026-05-05 13:58 43.70274 -78.67805 24202 ft 462 kts 66°
2026-05-05 13:58 43.71544 -78.63715 24657 ft 463 kts 66°
2026-05-05 13:59 43.74079 -78.55480 25489 ft 468 kts 66°
2026-05-05 13:59 43.75334 -78.51381 25884 ft 470 kts 67°
2026-05-05 14:00 43.77895 -78.43010 26647 ft 475 kts 66°
2026-05-05 14:00 43.78766 -78.40152 26884 ft 477 kts 67°
2026-05-05 14:00 43.80476 -78.34536 27379 ft 480 kts 67°
2026-05-05 14:00 43.81772 -78.30273 27749 ft 482 kts 67°
2026-05-05 14:01 43.83075 -78.25977 28086 ft 486 kts 66°
2026-05-05 14:01 43.84391 -78.21640 28382 ft 489 kts 66°
2026-05-05 14:01 43.85714 -78.17282 28703 ft 492 kts 66°
2026-05-05 14:01 43.87045 -78.12897 29040 ft 494 kts 67°
2026-05-05 14:02 43.88379 -78.08491 29363 ft 497 kts 67°
2026-05-05 14:02 43.89715 -78.04057 29683 ft 499 kts 67°
2026-05-05 14:02 43.91048 -77.99603 29952 ft 501 kts 67°
2026-05-05 14:02 43.92385 -77.95128 30196 ft 503 kts 68°
2026-05-05 14:03 43.93730 -77.90640 30478 ft 504 kts 68°
2026-05-05 14:03 43.95078 -77.86145 30743 ft 506 kts 68°
2026-05-05 14:03 43.96429 -77.81631 30998 ft 507 kts 68°
2026-05-05 14:03 43.97784 -77.77092 31216 ft 509 kts 68°
2026-05-05 14:04 43.99134 -77.72556 31539 ft 508 kts 68°
2026-05-05 14:04 44.00482 -77.68020 31868 ft 508 kts 68°
2026-05-05 14:04 44.01830 -77.63481 32195 ft 507 kts 68°
2026-05-05 14:04 44.03155 -77.59004 32502 ft 507 kts 68°
2026-05-05 14:05 44.04493 -77.54467 32645 ft 505 kts 69°
2026-05-05 14:05 44.05805 -77.50004 32664 ft 494 kts 69°
2026-05-05 14:05 44.08644 -77.41412 32667 ft 487 kts 58°
2026-05-05 14:06 44.12330 -77.33510 32674 ft 486 kts 56°
2026-05-05 14:06 44.16004 -77.25587 32678 ft 486 kts 56°
2026-05-05 14:07 44.19666 -77.17652 32680 ft 487 kts 56°
2026-05-05 14:07 44.23341 -77.09713 32683 ft 487 kts 56°
2026-05-05 14:08 44.27006 -77.01773 32699 ft 487 kts 56°
2026-05-05 14:08 44.30641 -76.93856 32682 ft 487 kts 56°
2026-05-05 14:09 44.34294 -76.85862 32677 ft 489 kts 57°
2026-05-05 14:09 44.37961 -76.77824 32667 ft 489 kts 56°
2026-05-05 14:10 44.41608 -76.69837 32680 ft 486 kts 56°
2026-05-05 14:10 44.45241 -76.61843 32665 ft 487 kts 57°
2026-05-05 14:11 44.48863 -76.53822 32660 ft 487 kts 57°
2026-05-05 14:11 44.52483 -76.45787 32658 ft 488 kts 57°
2026-05-05 14:12 44.56112 -76.37734 32662 ft 488 kts 57°
2026-05-05 14:12 44.59724 -76.29703 32652 ft 489 kts 57°
2026-05-05 14:13 44.63301 -76.21584 32659 ft 488 kts 62°
2026-05-05 14:13 44.65999 -76.12865 32663 ft 487 kts 68°
2026-05-05 14:14 44.68592 -76.04072 32662 ft 487 kts 68°
2026-05-05 14:14 44.70745 -75.96758 32660 ft 487 kts 69°
2026-05-05 14:15 44.73187 -75.87879 32650 ft 487 kts 71°
2026-05-05 14:15 44.74351 -75.83422 32455 ft 481 kts 71°
2026-05-05 14:15 44.75856 -75.77605 31840 ft 476 kts 71°
2026-05-05 14:16 44.76618 -75.74675 31531 ft 473 kts 71°
2026-05-05 14:16 44.77755 -75.70336 31068 ft 469 kts 71°
2026-05-05 14:16 44.78890 -75.66038 30607 ft 466 kts 71°
2026-05-05 14:16 44.80006 -75.61834 30164 ft 462 kts 71°
2026-05-05 14:17 44.81142 -75.57560 29714 ft 459 kts 71°
2026-05-05 14:17 44.82252 -75.53365 29210 ft 456 kts 71°
2026-05-05 14:17 44.83353 -75.49193 28704 ft 453 kts 71°
2026-05-05 14:17 44.84435 -75.45099 28228 ft 451 kts 71°
2026-05-05 14:18 44.85577 -75.40935 27746 ft 449 kts 70°
2026-05-05 14:18 44.86718 -75.36908 27241 ft 448 kts 69°
2026-05-05 14:18 44.87887 -75.32845 26772 ft 446 kts 69°
2026-05-05 14:18 44.89053 -75.28806 26309 ft 443 kts 69°
2026-05-05 14:19 44.90207 -75.24791 25864 ft 441 kts 69°
2026-05-05 14:19 44.91348 -75.20785 25422 ft 438 kts 69°
2026-05-05 14:19 44.92472 -75.16798 24986 ft 436 kts 70°
2026-05-05 14:19 44.93581 -75.12832 24557 ft 433 kts 70°
2026-05-05 14:20 44.94679 -75.08882 24128 ft 431 kts 70°
2026-05-05 14:20 44.95773 -75.04937 23698 ft 430 kts 70°
2026-05-05 14:20 44.96860 -75.01018 23288 ft 427 kts 70°
2026-05-05 14:20 44.97945 -74.97125 22817 ft 424 kts 69°
2026-05-05 14:21 44.99189 -74.93418 22318 ft 422 kts 60°
2026-05-05 14:21 45.00635 -74.89818 21838 ft 420 kts 60°
2026-05-05 14:21 45.02070 -74.86238 21371 ft 418 kts 60°
2026-05-05 14:21 45.03500 -74.82658 20901 ft 417 kts 60°
2026-05-05 14:22 45.04916 -74.79098 20447 ft 415 kts 60°
2026-05-05 14:22 45.06323 -74.75543 19994 ft 413 kts 60°
2026-05-05 14:22 45.07723 -74.71999 19550 ft 411 kts 60°
2026-05-05 14:22 45.09119 -74.68468 19112 ft 410 kts 60°
2026-05-05 14:23 45.10509 -74.64950 18679 ft 408 kts 60°
2026-05-05 14:23 45.11895 -74.61441 18257 ft 410 kts 60°
2026-05-05 14:23 45.13337 -74.57951 17846 ft 409 kts 58°
2026-05-05 14:23 45.14825 -74.54530 17418 ft 407 kts 57°
2026-05-05 14:24 45.16334 -74.51150 16985 ft 405 kts 57°
2026-05-05 14:24 45.17839 -74.47799 16572 ft 402 kts 57°
2026-05-05 14:24 45.19330 -74.44458 16156 ft 400 kts 57°
2026-05-05 14:24 45.20780 -74.41171 15757 ft 397 kts 57°
2026-05-05 14:25 45.22245 -74.37811 15333 ft 395 kts 58°
2026-05-05 14:25 45.23658 -74.34540 14941 ft 392 kts 58°
2026-05-05 14:25 45.25074 -74.31253 14549 ft 390 kts 58°
2026-05-05 14:25 45.26482 -74.27976 14162 ft 387 kts 58°
2026-05-05 14:26 45.27881 -74.24725 13794 ft 384 kts 58°
2026-05-05 14:26 45.29272 -74.21494 13414 ft 382 kts 58°
2026-05-05 14:26 45.30651 -74.18284 12988 ft 381 kts 58°
2026-05-05 14:26 45.32026 -74.15076 12565 ft 378 kts 58°
2026-05-05 14:27 45.33389 -74.11893 12155 ft 375 kts 58°
2026-05-05 14:27 45.34741 -74.08737 11741 ft 373 kts 58°
2026-05-05 14:27 45.36179 -74.05714 11306 ft 362 kts 48°
2026-05-05 14:27 45.37906 -74.03248 10904 ft 346 kts 39°
2026-05-05 14:28 45.39666 -74.00970 10519 ft 340 kts 39°
2026-05-05 14:28 45.41425 -73.98690 10132 ft 343 kts 39°
2026-05-05 14:28 45.43189 -73.96394 9754 ft 345 kts 40°
2026-05-05 14:28 45.44926 -73.94130 9370 ft 338 kts 40°
2026-05-05 14:29 45.46640 -73.91896 8939 ft 326 kts 40°
2026-05-05 14:29 45.48291 -73.89740 8521 ft 320 kts 40°
2026-05-05 14:29 45.49900 -73.87639 8123 ft 316 kts 40°
2026-05-05 14:29 45.51505 -73.85542 7988 ft 314 kts 40°
2026-05-05 14:30 45.53118 -73.83431 7999 ft 316 kts 40°
2026-05-05 14:30 45.54721 -73.81332 7833 ft 305 kts 40°
2026-05-05 14:30 45.56244 -73.79331 7464 ft 293 kts 40°
2026-05-05 14:30 45.57724 -73.77386 7103 ft 291 kts 41°
2026-05-05 14:31 45.59210 -73.75437 6757 ft 289 kts 41°
2026-05-05 14:31 45.60686 -73.73504 6416 ft 287 kts 41°
2026-05-05 14:31 45.62156 -73.71576 6080 ft 286 kts 41°
2026-05-05 14:31 45.63616 -73.69660 5727 ft 283 kts 41°
2026-05-05 14:32 45.65053 -73.67773 5369 ft 277 kts 41°
2026-05-05 14:32 45.66441 -73.65918 5019 ft 271 kts 42°
2026-05-05 14:32 45.67789 -73.64071 4674 ft 268 kts 42°
2026-05-05 14:32 45.69130 -73.62231 4370 ft 267 kts 42°
2026-05-05 14:33 45.70462 -73.60388 4092 ft 266 kts 42°
2026-05-05 14:33 45.71755 -73.58497 3771 ft 265 kts 54°
2026-05-05 14:33 45.72466 -73.56134 3464 ft 257 kts 88°
2026-05-05 14:33 45.72279 -73.53704 3177 ft 240 kts 121°
2026-05-05 14:34 45.71492 -73.51638 3029 ft 233 kts 135°
2026-05-05 14:34 45.70349 -73.50209 3001 ft 208 kts 168°
2026-05-05 14:34 45.69009 -73.49816 3011 ft 197 kts 184°
2026-05-05 14:34 45.67700 -73.50034 3016 ft 186 kts 204°
2026-05-05 14:35 45.66522 -73.50779 3020 ft 185 kts 211°
2026-05-05 14:35 45.65386 -73.51635 3015 ft 184 kts 214°
2026-05-05 14:35 45.64350 -73.52659 3009 ft 178 kts 220°
2026-05-05 14:35 45.63418 -73.53783 3010 ft 173 kts 223°
2026-05-05 14:36 45.62524 -73.54930 3010 ft 172 kts 224°
2026-05-05 14:36 45.61640 -73.56084 3010 ft 172 kts 224°
2026-05-05 14:36 45.60761 -73.57241 3014 ft 172 kts 224°
2026-05-05 14:36 45.59886 -73.58393 3009 ft 172 kts 224°
2026-05-05 14:37 45.59016 -73.59539 2891 ft 166 kts 224°
2026-05-05 14:37 45.58202 -73.60611 2716 ft 157 kts 224°
2026-05-05 14:37 45.57399 -73.61670 2547 ft 154 kts 224°
2026-05-05 14:37 45.56628 -73.62684 2336 ft 152 kts 223°
2026-05-05 14:38 45.55859 -73.63697 2121 ft 149 kts 224°
2026-05-05 14:38 45.55089 -73.64711 1915 ft 151 kts 223°
2026-05-05 14:38 45.54317 -73.65726 1712 ft 151 kts 223°
2026-05-05 14:38 45.53586 -73.66686 1506 ft 134 kts 222°
2026-05-05 14:39 45.52923 -73.67558 1340 ft 127 kts 222°
2026-05-05 14:39 45.52296 -73.68381 1178 ft 119 kts 223°
2026-05-05 14:39 45.51681 -73.69190 1014 ft 123 kts 223°
2026-05-05 14:39 45.51047 -73.70021 860 ft 124 kts 221°
2026-05-05 14:40 45.50407 -73.70861 706 ft 127 kts 220°
2026-05-05 14:40 45.49742 -73.71734 520 ft 132 kts 223°
2026-05-05 14:40 45.49063 -73.72628 379 ft 133 kts 219°
2026-05-05 14:40 45.48385 -73.73530 177 ft 133 kts 219°
2026-05-05 14:41 45.47748 -73.74340 113 ft 112 kts 224°
2026-05-05 14:41 45.47108 -73.75155 253 ft 139 kts 220°
2026-05-05 14:41 45.46387 -73.76139 980 ft 148 kts 223°
2026-05-05 14:41 45.45625 -73.77275 1627 ft 172 kts 237°
2026-05-05 14:42 45.45370 -73.79014 2320 ft 193 kts 270°
2026-05-05 14:42 45.45867 -73.80883 2901 ft 214 kts 296°
2026-05-05 14:42 45.47034 -73.82294 2997 ft 230 kts 326°
2026-05-05 14:42 45.48545 -73.83053 3004 ft 235 kts 334°
2026-05-05 14:43 45.50158 -73.83526 2995 ft 244 kts 353°
2026-05-05 14:43 45.51824 -73.82899 3005 ft 255 kts 28°
2026-05-05 14:43 45.53233 -73.81345 3009 ft 258 kts 40°
2026-05-05 14:43 45.54555 -73.79608 3006 ft 260 kts 42°
2026-05-05 14:44 45.55872 -73.77833 3004 ft 260 kts 42°
2026-05-05 14:44 45.57187 -73.76051 3001 ft 261 kts 43°
2026-05-05 14:44 45.58504 -73.74278 3008 ft 260 kts 43°
2026-05-05 14:44 45.59819 -73.72515 3004 ft 260 kts 42°
2026-05-05 14:45 45.61143 -73.70731 3006 ft 261 kts 42°
2026-05-05 14:45 45.62466 -73.68952 3008 ft 261 kts 43°
2026-05-05 14:45 45.63787 -73.67176 3008 ft 261 kts 42°
2026-05-05 14:45 45.65100 -73.65385 3004 ft 261 kts 45°
2026-05-05 14:46 45.66072 -73.63232 3005 ft 257 kts 77°
2026-05-05 14:46 45.66185 -73.60817 3013 ft 242 kts 111°
2026-05-05 14:46 45.65500 -73.58742 3016 ft 224 kts 139°
2026-05-05 14:46 45.64368 -73.57361 3017 ft 208 kts 162°
2026-05-05 14:47 45.63042 -73.56741 3014 ft 196 kts 182°
2026-05-05 14:47 45.61720 -73.56846 3017 ft 187 kts 201°
2026-05-05 14:47 45.60548 -73.57592 3015 ft 183 kts 218°
2026-05-05 14:47 45.59594 -73.58774 3014 ft 182 kts 224°
2026-05-05 14:48 45.58684 -73.59975 2837 ft 175 kts 223°
2026-05-05 14:48 45.57821 -73.61113 2614 ft 162 kts 224°
2026-05-05 14:48 45.57012 -73.62178 2395 ft 155 kts 224°
2026-05-05 14:48 45.56229 -73.63210 2226 ft 151 kts 223°
2026-05-05 14:49 45.55483 -73.64191 2023 ft 142 kts 224°
2026-05-05 14:49 45.54761 -73.65142 1824 ft 142 kts 223°
2026-05-05 14:49 45.54037 -73.66093 1646 ft 141 kts 223°
2026-05-05 14:49 45.53312 -73.67046 1439 ft 143 kts 223°
2026-05-05 14:50 45.52569 -73.68023 1255 ft 145 kts 223°
2026-05-05 14:50 45.51864 -73.68948 1057 ft 131 kts 224°
2026-05-05 14:50 45.51209 -73.69807 890 ft 125 kts 221°
2026-05-05 14:50 45.50572 -73.70644 746 ft 124 kts 220°
2026-05-05 14:51 45.49910 -73.71512 578 ft 132 kts 222°
2026-05-05 14:51 45.49253 -73.72409 373 ft 134 kts 223°
2026-05-05 14:51 45.48546 -73.73323 261 ft 139 kts 218°
2026-05-05 14:51 45.47848 -73.74224 115 ft 125 kts 220°
2026-05-05 14:52 45.47291 -73.74934 115 ft 86 kts 223°
2026-05-05 14:52 45.46970 -73.75357 108 ft 56 kts 223°
2026-05-05 14:52 45.46792 -73.75554 107 ft 20 kts 201°
2026-05-05 14:52 45.46655 -73.75617 107 ft 22 kts 193°
2026-05-05 14:53 45.46501 -73.75664 105 ft 23 kts 192°
2026-05-05 14:53 45.46339 -73.75715 104 ft 24 kts 192°
2026-05-05 14:53 45.46211 -73.75729 103 ft 15 kts 176°
2026-05-05 14:53 45.46134 -73.75752 102 ft 12 kts 240°
2026-05-05 14:54 45.46126 -73.75877 102 ft 14 kts 268°
2026-05-05 14:54 45.46122 -73.76019 102 ft 15 kts 263°
2026-05-05 14:54 45.46046 -73.76064 104 ft 12 kts 178°
2026-05-05 14:54 45.45958 -73.76059 104 ft 14 kts 178°
2026-05-05 14:55 45.45853 -73.76046 104 ft 16 kts 168°
2026-05-05 14:55 45.45748 -73.75994 105 ft 17 kts 139°
2026-05-05 14:55 45.45673 -73.75859 105 ft 18 kts 128°
2026-05-05 14:55 45.45609 -73.75722 103 ft 9 kts 72°
2026-05-05 14:56 45.45615 -73.75701 105 ft 1 kts 74°
2026-05-05 14:56 45.45616 -73.75695 105 ft 0 kts 74°
2026-05-05 14:56 45.45616 -73.75694 105 ft 0 kts 74°
2026-05-05 14:56 45.45619 -73.75679 105 ft 2 kts 76°
2026-05-05 14:57 45.45623 -73.75650 104 ft 3 kts 78°
2026-05-05 14:57 45.45623 -73.75616 105 ft 3 kts 109°
2026-05-05 14:57 45.45597 -73.75596 104 ft 6 kts 150°
2026-05-05 14:57 45.45578 -73.75582 105 ft 1 kts 153°
2026-05-05 14:58 45.45573 -73.75579 103 ft 0 kts 154°